Location: Carrer del Canonge
(41.4901°N, 2.2931°E)
Time: 03:46:06
(UTC+00:00)

OBJECT-B - Pass Details

Date: 18 September 2020
Orbit: 421 x 433 km, 97.0° (Epoch: 09 October)

Event Time Altitude Azimuth Distance (km) Brightness Sun altitude
Exits shadow 19:01:25 12° 51° (NE) 1,421 3.1 -13.2°
Drops below altitude 10° 19:02:01 10° 41° (NE) 1,515 3.3 -13.4°
Sets 19:04:57 0° 11° (N) 2,389 4.6 -13.9°
